Flagstaff, AZ

10:36 PM MST on September 21, 2017 (GMT -0700)
Flagstaff Pulliam

Weather History for KFLG - February, 2013

Change the Weather History Date:

Saturday, February 9, 2013

  Actual Average Record
Temperature  
Mean Temperature 23 °F 31 °F  
Max Temperature 26 °F 44 °F 64 °F (1996)
Min Temperature 19 °F 19 °F -21 °F (1929)
Degree Days  
Heating Degree Days 42 34  
Month to date heating degree days 277 306  
Since 1 July heating degree days 4114 4222  
Cooling Degree Days 0 0  
Month to date cooling degree days 0 0  
Year to date cooling degree days 0 0  
Moisture  
Dew Point 18 °F    
Average Humidity 80    
Maximum Humidity 96    
Minimum Humidity 63    
Precipitation  
Precipitation 0.27 in 0.08 in 2.07 in (1976)
Month to date precipitation 0.29 0.65  
Year to date precipitation 2.93 2.70  
Snow  
Snow 6.60 in 0.70 in 14.60 in (2009)
Month to date snowfall 6.6 7.0  
Since 1 July snowfall 39.6 59.3  
Snow Depth 3.00 in    
Sea Level Pressure  
Sea Level Pressure 29.74 in    
Wind  
Wind Speed 14 mph (SW)    
Max Wind Speed 25 mph    
Max Gust Speed 33 mph    
Visibility 3 miles    
Events Fog , Snow    
T = Trace of Precipitation, MM = Missing Value Source: NWS Daily Summary

Daily Weather History Graph

Daily Weather History Graph

Search for Another Location

Airport or City:

Trip Planner

Search our weather history database for the weather conditions in past years. The results will help you decide how hot, cold, wet, or windy it might be!

Date:

Astronomy

Feb. 09, 2013 Rise Set
Actual Time 7:18 AM MST 6:03 PM MST
Civil Twilight 6:52 AM MST 6:29 PM MST
Nautical Twilight 6:22 AM MST 6:59 PM MST
Astronomical Twilight 5:52 AM MST 7:29 PM MST
Moon 6:33 AM MST (2/9) 5:49 PM MST (2/9)
Length of Visible Light 11h 37m
Length of Day
10h 45m
Waning Crescent, 0% of the Moon is Illuminated
Feb 9
Waning Crescent
Feb 10
New
Feb 17
First Quarter
Feb 25
Full
Mar 4
Last Quarter

Hourly Weather History & Observations

Time (MST) Temp. Windchill Dew Point Humidity Pressure Visibility Wind Dir Wind Speed Gust Speed Precip Events Conditions
12:06 AM 24.8 °F 13.4 °F 15.8 °F 69% 29.70 in 3.0 mi SSW 12.7 mph - 0.00 in Snow Light Snow
12:22 AM 24.8 °F 15.3 °F 15.8 °F 69% 29.69 in 9.0 mi SW 9.2 mph - 0.00 in   Overcast
12:57 AM 25.0 °F 18.1 °F 16.0 °F 69% 29.62 in 10.0 mi Variable 5.8 mph - 0.00 in   Overcast
1:34 AM 24.8 °F 15.3 °F 17.6 °F 74% 29.67 in 5.0 mi SSW 9.2 mph - 0.00 in Snow Light Snow
1:44 AM 24.8 °F 14.6 °F 19.4 °F 80% 29.67 in 1.8 mi SW 10.4 mph - 0.00 in Snow Light Snow
1:57 AM 23.0 °F 12.4 °F 19.9 °F 88% 29.62 in 1.2 mi SSW 10.4 mph - 0.00 in Snow Light Snow
2:13 AM 23.0 °F 13.1 °F 19.4 °F 86% 29.65 in 3.0 mi SSW 9.2 mph - 0.00 in Snow Light Snow
2:22 AM 23.0 °F 13.9 °F 19.4 °F 86% 29.65 in 3.0 mi SSW 8.1 mph - 0.00 in Snow Light Snow
2:27 AM 23.0 °F 15.8 °F 19.4 °F 86% 29.65 in 1.8 mi SSW 5.8 mph - 0.00 in Snow Light Snow
2:55 AM 23.0 °F 15.8 °F 21.2 °F 93% 29.63 in 1.0 mi South 5.8 mph - 0.01 in Snow Light Snow
2:57 AM 23.0 °F 14.7 °F 21.0 °F 92% 29.60 in 1.0 mi South 6.9 mph - 0.01 in Snow Light Snow
3:13 AM 23.0 °F 18.4 °F 21.2 °F 93% 29.62 in 0.8 mi SSW 3.5 mph - 0.01 in Snow Light Snow
3:23 AM 23.0 °F 13.9 °F 21.2 °F 93% 29.63 in 0.5 mi SW 8.1 mph - 0.03 in Fog , Snow Snow
3:35 AM 23.0 °F 11.7 °F 21.2 °F 93% 29.63 in 0.2 mi SW 11.5 mph - 0.05 in Fog , Snow Heavy Snow
3:57 AM 21.9 °F 9.2 °F 19.9 °F 92% 29.61 in 0.2 mi WSW 13.8 mph 21.9 mph 0.09 in Fog , Snow Heavy Snow
4:09 AM 21.2 °F 9.5 °F 19.4 °F 93% 29.63 in 0.8 mi WSW 11.5 mph 18.4 mph 0.05 in Snow Light Snow
4:13 AM 21.2 °F 10.9 °F 19.4 °F 93% 29.64 in 1.0 mi WSW 9.2 mph - 0.05 in Snow Light Snow
4:31 AM 21.2 °F 11.7 °F 17.6 °F 86% 29.63 in 1.8 mi SW 8.1 mph 16.1 mph 0.05 in Snow Light Snow
4:34 AM 21.2 °F 11.7 °F 17.6 °F 86% 29.63 in 3.0 mi SW 8.1 mph - 0.05 in Snow Light Snow
4:45 AM 21.2 °F 10.1 °F 17.6 °F 86% 29.63 in 9.0 mi SW 10.4 mph - 0.05 in   Overcast
4:57 AM 21.0 °F 9.3 °F 17.1 °F 85% 29.61 in 10.0 mi SW 11.5 mph - 0.05 in   Overcast
5:18 AM 21.2 °F 7.8 °F 17.6 °F 86% 29.62 in 10.0 mi SW 15.0 mph - N/A   Overcast
5:57 AM 19.9 °F 7.9 °F 17.1 °F 89% 29.63 in 9.0 mi WSW 11.5 mph 21.9 mph N/A   Overcast
6:23 AM 19.4 °F 3.6 °F 15.8 °F 86% 29.63 in 7.0 mi SW 19.6 mph 29.9 mph 0.00 in Snow Light Snow
6:57 AM 19.9 °F 6.2 °F 14.0 °F 78% 29.65 in 5.0 mi WSW 15.0 mph - 0.00 in Snow Light Snow
7:26 AM 19.4 °F 9.5 °F 15.8 °F 86% 29.65 in 1.8 mi SW 8.1 mph 18.4 mph 0.00 in Snow Light Snow
7:50 AM 19.4 °F 10.4 °F 15.8 °F 86% 29.65 in 2.0 mi WSW 6.9 mph - 0.00 in Snow Light Snow
7:55 AM 19.4 °F 7.9 °F 15.8 °F 86% 29.66 in 0.8 mi WSW 10.4 mph - 0.01 in Snow Light Snow
7:57 AM 19.9 °F 9.3 °F 16.0 °F 85% 29.68 in 0.5 mi SW 9.2 mph - 0.01 in Fog , Snow Snow
8:05 AM 19.4 °F 8.6 °F 17.6 °F 93% 29.66 in 0.2 mi SW 9.2 mph - 0.00 in Fog , Snow Snow
8:12 AM 19.4 °F 7.2 °F 17.6 °F 93% 29.66 in 1.0 mi SW 11.5 mph - 0.01 in Snow Light Snow
8:20 AM 19.4 °F 7.9 °F 17.6 °F 93% 29.66 in 3.0 mi SSW 10.4 mph - 0.01 in Snow Light Snow
8:25 AM 19.4 °F 9.5 °F 17.6 °F 93% 29.66 in 2.5 mi SW 8.1 mph - 0.01 in Snow Light Snow
8:31 AM 19.4 °F 6.6 °F 17.6 °F 93% 29.67 in 0.8 mi SW 12.7 mph - 0.01 in Snow Light Snow
8:43 AM 19.4 °F 5.5 °F 17.6 °F 93% 29.67 in 2.0 mi SW 15.0 mph 26.5 mph 0.01 in Snow Light Snow
8:57 AM 21.0 °F 7.6 °F 17.1 °F 85% 29.69 in 1.5 mi WSW 15.0 mph 24.2 mph 0.01 in Snow Light Snow
9:08 AM 21.2 °F 7.3 °F 17.6 °F 86% 29.68 in 0.8 mi SW 16.1 mph 20.7 mph 0.00 in Snow Light Snow
9:15 AM 21.2 °F 6.4 °F 17.6 °F 86% 29.68 in 2.0 mi SW 18.4 mph 24.2 mph 0.00 in Snow Light Snow
9:24 AM 21.2 °F 6.4 °F 15.8 °F 80% 29.68 in 5.0 mi WSW 18.4 mph 25.3 mph 0.00 in Snow Light Snow
9:57 AM 21.9 °F 8.2 °F 18.0 °F 85% 29.71 in 1.8 mi SW 16.1 mph - 0.00 in Snow Light Snow
10:11 AM 23.0 °F 6.9 °F 17.6 °F 80% 29.70 in 3.0 mi SW 24.2 mph 31.1 mph 0.00 in Snow Light Snow
10:17 AM 23.0 °F 8.7 °F 17.6 °F 80% 29.71 in 1.8 mi SW 18.4 mph 31.1 mph 0.00 in Snow Light Snow
10:52 AM 23.0 °F 8.7 °F 17.6 °F 80% 29.72 in 3.0 mi WSW 18.4 mph 25.3 mph 0.00 in Snow Light Snow
10:57 AM 23.0 °F 8.7 °F 17.1 °F 78% 29.74 in 5.0 mi WSW 18.4 mph 28.8 mph 0.00 in Snow Light Snow
11:57 AM 26.1 °F 16.2 °F 16.0 °F 66% 29.74 in 8.0 mi WSW 10.4 mph 24.2 mph 0.00 in Snow Light Snow
12:12 PM 23.0 °F 11.1 °F 17.6 °F 80% 29.74 in 0.8 mi WSW 12.7 mph 21.9 mph 0.00 in Snow Light Snow
12:17 PM 21.2 °F 8.9 °F 17.6 °F 86% 29.74 in 0.2 mi WSW 12.7 mph - 0.00 in Fog , Snow Heavy Snow
12:40 PM 23.0 °F 8.7 °F 19.4 °F 86% 29.74 in 1.0 mi SW 18.4 mph 25.3 mph 0.04 in Snow Light Snow
12:57 PM 23.0 °F 7.6 °F 18.0 °F 81% 29.77 in 2.0 mi SW 21.9 mph 29.9 mph 0.04 in Snow Light Snow
1:09 PM 24.8 °F 10.0 °F 17.6 °F 74% 29.74 in 4.0 mi WSW 21.9 mph 33.4 mph 0.00 in   Haze
1:34 PM 24.8 °F 10.0 °F 17.6 °F 74% 29.73 in 1.8 mi SW 21.9 mph 27.6 mph 0.00 in Snow Light Snow
1:48 PM 24.8 °F 10.7 °F 17.6 °F 74% 29.74 in 3.0 mi WSW 19.6 mph 31.1 mph 0.00 in Snow Light Snow
1:57 PM 24.1 °F 9.4 °F 17.1 °F 75% 29.77 in 8.0 mi SW 20.7 mph 26.5 mph 0.00 in Snow Light Snow
2:14 PM 24.8 °F 11.9 °F 17.6 °F 74% 29.74 in 1.8 mi SW 16.1 mph 25.3 mph 0.00 in Snow Light Snow
2:45 PM 24.8 °F 11.5 °F 19.4 °F 80% 29.76 in 0.8 mi SW 17.3 mph 25.3 mph 0.00 in Snow Light Snow
2:57 PM 24.1 °F 9.0 °F 19.9 °F 84% 29.78 in 0.8 mi SW 21.9 mph 25.3 mph 0.00 in Snow Light Snow
3:04 PM 24.8 °F 12.4 °F 19.4 °F 80% 29.76 in 1.5 mi SW 15.0 mph 26.5 mph 0.00 in Snow Light Snow
3:57 PM 24.1 °F 10.6 °F 19.9 °F 84% 29.81 in 1.0 mi SW 17.3 mph 26.5 mph 0.01 in Snow Light Snow
4:05 PM 24.8 °F 12.4 °F 19.4 °F 80% 29.77 in 0.8 mi SW 15.0 mph 26.5 mph 0.00 in Snow Light Snow
4:16 PM 24.8 °F 11.1 °F 19.4 °F 80% 29.78 in 0.8 mi SW 18.4 mph 24.2 mph 0.00 in Snow Light Snow
4:36 PM 24.8 °F 10.0 °F 19.4 °F 80% 29.78 in 1.0 mi WSW 21.9 mph 32.2 mph 0.00 in Snow Light Snow
4:57 PM 23.0 °F 10.1 °F 19.0 °F 85% 29.85 in 1.0 mi SW 15.0 mph 27.6 mph 0.00 in Snow Light Snow
5:05 PM 23.0 °F 9.6 °F 19.4 °F 86% 29.81 in 0.5 mi SW 16.1 mph 23.0 mph 0.00 in Fog , Snow Snow
5:18 PM 23.0 °F 10.1 °F 19.4 °F 86% 29.81 in 1.5 mi WSW 15.0 mph 24.2 mph 0.00 in Snow Light Snow
5:57 PM 23.0 °F 10.6 °F 19.9 °F 88% 29.88 in 0.2 mi SW 13.8 mph - 0.01 in Fog , Snow Heavy Snow
6:11 PM 21.2 °F 9.5 °F 19.4 °F 93% 29.83 in 0.5 mi WSW 11.5 mph 23.0 mph 0.00 in Fog , Snow Snow
6:19 PM 21.2 °F 8.9 °F 19.4 °F 93% 29.83 in 0.5 mi WSW 12.7 mph - 0.01 in Fog , Snow Snow
6:26 PM 21.2 °F 11.7 °F 19.4 °F 93% 29.83 in 1.0 mi SW 8.1 mph - 0.01 in Snow Light Snow
6:57 PM 21.9 °F 12.5 °F 19.9 °F 92% 29.90 in 0.5 mi WSW 8.1 mph - 0.03 in Fog , Snow Snow
7:07 PM 21.2 °F 9.5 °F 19.4 °F 93% 29.84 in 1.2 mi WSW 11.5 mph 19.6 mph 0.00 in Snow Light Snow
7:15 PM 21.2 °F 9.5 °F 19.4 °F 93% 29.84 in 2.5 mi WSW 11.5 mph - 0.00 in Snow Light Snow
7:22 PM 21.2 °F 8.9 °F 19.4 °F 93% 29.84 in 1.5 mi WSW 12.7 mph 20.7 mph 0.00 in Snow Light Snow
7:32 PM 21.2 °F 9.5 °F 19.4 °F 93% 29.85 in 3.0 mi WSW 11.5 mph - 0.00 in Snow Light Snow
7:46 PM 21.2 °F 10.1 °F 19.4 °F 93% 29.84 in 1.8 mi WSW 10.4 mph - 0.00 in Snow Light Snow
7:51 PM 21.2 °F 10.9 °F 19.4 °F 93% 29.84 in 0.8 mi WSW 9.2 mph - 0.01 in Snow Light Snow
7:57 PM 21.9 °F 11.7 °F 19.0 °F 89% 29.91 in 1.2 mi WSW 9.2 mph - 0.01 in Snow Light Snow
8:06 PM 21.2 °F 10.1 °F 19.4 °F 93% 29.85 in 2.5 mi WSW 10.4 mph - 0.00 in Snow Light Snow
8:13 PM 21.2 °F 8.9 °F 19.4 °F 93% 29.85 in 4.0 mi WSW 12.7 mph - 0.00 in Snow Light Snow
8:47 PM 21.2 °F 8.9 °F 19.4 °F 93% 29.84 in 1.8 mi WSW 12.7 mph 20.7 mph 0.00 in Snow Light Snow
8:51 PM 21.2 °F 10.9 °F 19.4 °F 93% 29.85 in 0.8 mi WSW 9.2 mph 20.7 mph 0.00 in Snow Light Snow
8:57 PM 21.9 °F 11.0 °F 19.0 °F 89% 29.91 in 1.0 mi WSW 10.4 mph - 0.00 in Snow Light Snow
9:00 PM 21.2 °F 10.1 °F 17.6 °F 86% 29.85 in 2.0 mi WSW 10.4 mph - 0.00 in Snow Light Snow
9:07 PM 21.2 °F 10.1 °F 17.6 °F 86% 29.86 in 7.0 mi WSW 10.4 mph - 0.00 in Snow Light Snow
9:57 PM 21.9 °F 10.4 °F 18.0 °F 85% 29.94 in 9.0 mi WSW 11.5 mph 19.6 mph 0.00 in   Overcast
10:18 PM 21.2 °F 9.5 °F 19.4 °F 93% 29.88 in 5.0 mi WSW 11.5 mph - 0.00 in Snow Light Snow
10:36 PM 21.2 °F 10.1 °F 19.4 °F 93% 29.88 in 2.5 mi WSW 10.4 mph - 0.00 in Snow Light Snow
10:43 PM 21.2 °F 8.9 °F 19.4 °F 93% 29.88 in 4.0 mi WSW 12.7 mph - 0.00 in Snow Light Snow
10:57 PM 21.9 °F 11.0 °F 18.0 °F 85% 29.92 in 9.0 mi WSW 10.4 mph - 0.00 in   Overcast
11:55 PM 21.2 °F 10.1 °F 17.6 °F 86% 29.89 in 4.0 mi WSW 10.4 mph 19.6 mph 0.00 in Snow Light Snow
11:57 PM 21.9 °F 11.0 °F 18.0 °F 85% 29.92 in 4.0 mi WSW 10.4 mph 19.6 mph 0.00 in Snow Light Snow